Year,Month,Day,Hour,Minute,Value (Times are PST for temperature in C)
2016,04,25,00,00,6.20
2016,04,25,00,01,6.20
2016,04,25,00,02,6.20
2016,04,25,00,03,6.20
2016,04,25,00,04,6.20
2016,04,25,00,05,6.20
2016,04,25,00,06,6.20
2016,04,25,00,07,6.20
2016,04,25,00,08,6.20
2016,04,25,00,09,6.20
2016,04,25,00,10,6.20
2016,04,25,00,11,6.10
2016,04,25,00,12,6.10
2016,04,25,00,13,6.10
2016,04,25,00,14,6.10
2016,04,25,00,15,6.10
2016,04,25,00,16,6.10
2016,04,25,00,17,6.10
2016,04,25,00,18,6.10
2016,04,25,00,19,6.10
2016,04,25,00,20,6.10
2016,04,25,00,21,6.10
2016,04,25,00,22,6.10
2016,04,25,00,23,6.10
2016,04,25,00,24,6.10
2016,04,25,00,25,6.10
2016,04,25,00,26,6.10
2016,04,25,00,27,6.10
2016,04,25,00,28,6.10
2016,04,25,00,29,6.10
2016,04,25,00,30,6.10
2016,04,25,00,31,6.10
2016,04,25,00,32,6.00
2016,04,25,00,33,6.00
2016,04,25,00,34,6.00
2016,04,25,00,35,6.00
2016,04,25,00,36,6.00
2016,04,25,00,37,6.00
2016,04,25,00,38,6.00
2016,04,25,00,39,6.00
2016,04,25,00,40,6.00
2016,04,25,00,41,5.90
2016,04,25,00,42,5.90
2016,04,25,00,43,5.90
2016,04,25,00,44,5.90
2016,04,25,00,45,5.90
2016,04,25,00,46,6.00
2016,04,25,00,47,5.90
2016,04,25,00,48,5.90
2016,04,25,00,49,5.90
2016,04,25,00,50,5.90
2016,04,25,00,51,5.90
2016,04,25,00,52,5.90
2016,04,25,00,53,5.90
2016,04,25,00,54,5.90
2016,04,25,00,55,5.90
2016,04,25,00,56,5.90
2016,04,25,00,57,5.90
2016,04,25,00,58,5.90
2016,04,25,00,59,5.90
2016,04,25,01,00,5.90
2016,04,25,01,01,5.90
2016,04,25,01,02,5.90
2016,04,25,01,03,5.90
2016,04,25,01,04,5.90
2016,04,25,01,05,5.90
2016,04,25,01,06,5.90
2016,04,25,01,07,5.90
2016,04,25,01,08,5.90
2016,04,25,01,09,5.90
2016,04,25,01,10,6.00
2016,04,25,01,11,6.00
2016,04,25,01,12,6.00
2016,04,25,01,13,6.00
2016,04,25,01,14,6.10
2016,04,25,01,15,6.10
2016,04,25,01,16,6.10
2016,04,25,01,17,6.10
2016,04,25,01,18,6.10
2016,04,25,01,19,6.10
2016,04,25,01,20,6.10
2016,04,25,01,21,6.10
2016,04,25,01,22,6.10
2016,04,25,01,23,6.10
2016,04,25,01,24,6.10
2016,04,25,01,25,6.10
2016,04,25,01,26,6.20
2016,04,25,01,27,6.20
2016,04,25,01,28,6.20
2016,04,25,01,29,6.20
2016,04,25,01,30,6.20
2016,04,25,01,31,6.20
2016,04,25,01,32,6.20
2016,04,25,01,33,6.20
2016,04,25,01,34,6.20
2016,04,25,01,35,6.20
2016,04,25,01,36,6.20
2016,04,25,01,37,6.20
2016,04,25,01,38,6.20
2016,04,25,01,39,6.20
2016,04,25,01,40,6.20
2016,04,25,01,41,6.20
2016,04,25,01,42,6.20
2016,04,25,01,43,6.30
2016,04,25,01,44,6.30
2016,04,25,01,45,6.30
2016,04,25,01,46,6.30
2016,04,25,01,47,6.30
2016,04,25,01,48,6.30
2016,04,25,01,49,6.30
2016,04,25,01,50,6.30
2016,04,25,01,51,6.30
2016,04,25,01,52,6.40
2016,04,25,01,53,6.40
2016,04,25,01,54,6.40
2016,04,25,01,55,6.40
2016,04,25,01,56,6.40
2016,04,25,01,57,6.40
2016,04,25,01,58,6.40
2016,04,25,01,59,6.40
2016,04,25,02,00,6.40
2016,04,25,02,01,6.40
2016,04,25,02,02,6.40
2016,04,25,02,03,6.50
2016,04,25,02,04,6.50
2016,04,25,02,05,6.50
2016,04,25,02,06,6.50
2016,04,25,02,07,6.50
2016,04,25,02,08,6.50
2016,04,25,02,09,6.60
2016,04,25,02,10,6.60
2016,04,25,02,11,6.60
2016,04,25,02,12,6.60
2016,04,25,02,13,6.60
2016,04,25,02,14,6.60
2016,04,25,02,15,6.60
2016,04,25,02,16,6.60
2016,04,25,02,17,6.60
2016,04,25,02,18,6.60
2016,04,25,02,19,6.60
2016,04,25,02,20,6.60
2016,04,25,02,21,6.60
2016,04,25,02,22,6.60
2016,04,25,02,23,6.60
2016,04,25,02,24,6.60
2016,04,25,02,25,6.60
2016,04,25,02,26,6.60
2016,04,25,02,27,6.60
2016,04,25,02,28,6.60
2016,04,25,02,29,6.60
2016,04,25,02,30,6.60
2016,04,25,02,31,6.60
2016,04,25,02,32,6.60
2016,04,25,02,33,6.60
2016,04,25,02,34,6.60
2016,04,25,02,35,6.60
2016,04,25,02,36,6.60
2016,04,25,02,37,6.60
2016,04,25,02,38,6.60
2016,04,25,02,39,6.60
2016,04,25,02,40,6.60
2016,04,25,02,41,6.60
2016,04,25,02,42,6.60
2016,04,25,02,43,6.60
2016,04,25,02,44,6.50
2016,04,25,02,45,6.50
2016,04,25,02,46,6.50
2016,04,25,02,47,6.50
2016,04,25,02,48,6.50
2016,04,25,02,49,6.50
2016,04,25,02,50,6.50
2016,04,25,02,51,6.50
2016,04,25,02,52,6.50
2016,04,25,02,53,6.50
2016,04,25,02,54,6.40
2016,04,25,02,55,6.40
2016,04,25,02,56,6.40
2016,04,25,02,57,6.40
2016,04,25,02,58,6.40
2016,04,25,02,59,6.40
2016,04,25,03,00,6.40
2016,04,25,03,01,6.30
2016,04,25,03,02,6.30
2016,04,25,03,03,6.30
2016,04,25,03,04,6.30
2016,04,25,03,05,6.30
2016,04,25,03,06,6.30
2016,04,25,03,07,6.30
2016,04,25,03,08,6.30
2016,04,25,03,09,6.30
2016,04,25,03,10,6.30
2016,04,25,03,11,6.30
2016,04,25,03,12,6.30
2016,04,25,03,13,6.30
2016,04,25,03,14,6.30
2016,04,25,03,15,6.30
2016,04,25,03,16,6.30
2016,04,25,03,17,6.20
2016,04,25,03,18,6.20
2016,04,25,03,19,6.20
2016,04,25,03,20,6.20
2016,04,25,03,21,6.20
2016,04,25,03,22,6.20
2016,04,25,03,23,6.20
2016,04,25,03,24,6.20
2016,04,25,03,25,6.10
2016,04,25,03,26,6.10
2016,04,25,03,27,6.10
2016,04,25,03,28,6.10
2016,04,25,03,29,6.10
2016,04,25,03,30,6.10
2016,04,25,03,31,6.10
2016,04,25,03,32,6.10
2016,04,25,03,33,6.10
2016,04,25,03,34,6.00
2016,04,25,03,35,6.00
2016,04,25,03,36,6.00
2016,04,25,03,37,6.00
2016,04,25,03,38,5.90
2016,04,25,03,39,5.90
2016,04,25,03,40,5.90
2016,04,25,03,41,5.90
2016,04,25,03,42,5.90
2016,04,25,03,43,5.90
2016,04,25,03,44,5.90
2016,04,25,03,49,5.80
2016,04,25,03,50,5.80
2016,04,25,03,51,5.80
2016,04,25,03,52,5.80
2016,04,25,03,53,5.80
2016,04,25,03,54,5.80
2016,04,25,03,55,5.80
2016,04,25,03,56,5.80
2016,04,25,03,57,5.80
2016,04,25,03,58,5.80
2016,04,25,03,59,5.80
2016,04,25,04,00,5.80
2016,04,25,04,01,5.80
2016,04,25,04,02,5.80
2016,04,25,04,03,5.80
2016,04,25,04,04,5.80
2016,04,25,04,05,5.80
2016,04,25,04,06,5.80
2016,04,25,04,07,5.80
2016,04,25,04,08,5.80
2016,04,25,04,09,5.80
2016,04,25,04,10,5.80
2016,04,25,04,11,5.80
2016,04,25,04,12,5.80
2016,04,25,04,13,5.80
2016,04,25,04,14,5.80
2016,04,25,04,15,5.80
2016,04,25,04,16,5.70
2016,04,25,04,17,5.70
2016,04,25,04,18,5.70
2016,04,25,04,19,5.70
2016,04,25,04,20,5.70
2016,04,25,04,21,5.70
2016,04,25,04,22,5.70
2016,04,25,04,23,5.70
2016,04,25,04,24,5.70
2016,04,25,04,25,5.70
2016,04,25,04,26,5.70
2016,04,25,04,27,5.70
2016,04,25,04,28,5.60
2016,04,25,04,29,5.60
2016,04,25,04,30,5.60
2016,04,25,04,31,5.60
2016,04,25,04,32,5.60
2016,04,25,04,33,5.60
2016,04,25,04,34,5.50
2016,04,25,04,35,5.50
2016,04,25,04,36,5.50
2016,04,25,04,37,5.40
2016,04,25,04,38,5.40
2016,04,25,04,39,5.40
2016,04,25,04,40,5.40
2016,04,25,04,41,5.40
2016,04,25,04,42,5.30
2016,04,25,04,43,5.30
2016,04,25,04,44,5.30
2016,04,25,04,45,5.30
2016,04,25,04,46,5.30
2016,04,25,04,47,5.20
2016,04,25,04,48,5.20
2016,04,25,04,49,5.20
2016,04,25,04,50,5.20
2016,04,25,04,51,5.20
2016,04,25,04,52,5.20
2016,04,25,04,53,5.20
2016,04,25,04,54,5.10
2016,04,25,04,55,5.10
2016,04,25,04,56,5.10
2016,04,25,04,57,5.10
2016,04,25,04,58,5.10
2016,04,25,04,59,5.10
2016,04,25,05,00,5.10
2016,04,25,05,01,5.10
2016,04,25,05,02,5.10
2016,04,25,05,03,5.10
2016,04,25,05,04,5.10
2016,04,25,05,05,5.10
2016,04,25,05,06,5.10
2016,04,25,05,07,5.10
2016,04,25,05,08,5.10
2016,04,25,05,09,5.10
2016,04,25,05,10,5.20
2016,04,25,05,11,5.20
2016,04,25,05,12,5.20
2016,04,25,05,13,5.10
2016,04,25,05,14,5.10
2016,04,25,05,15,5.10
2016,04,25,05,16,5.10
2016,04,25,05,17,5.10
2016,04,25,05,18,5.10
2016,04,25,05,19,5.10
2016,04,25,05,20,5.10
2016,04,25,05,21,5.20
2016,04,25,05,22,5.20
2016,04,25,05,23,5.20
2016,04,25,05,24,5.20
2016,04,25,05,25,5.10
2016,04,25,05,26,5.10
2016,04,25,05,27,5.10
2016,04,25,05,28,5.10
2016,04,25,05,29,5.10
2016,04,25,05,30,5.10
2016,04,25,05,31,5.10
2016,04,25,05,32,5.10
2016,04,25,05,33,5.10
2016,04,25,05,34,5.10
2016,04,25,05,35,5.10
2016,04,25,05,36,5.10
2016,04,25,05,37,5.10
2016,04,25,05,38,5.10
2016,04,25,05,39,5.00
2016,04,25,05,40,5.00
2016,04,25,05,41,5.00
2016,04,25,05,42,5.00
2016,04,25,05,43,4.90
2016,04,25,05,44,4.90
2016,04,25,05,45,4.90
2016,04,25,05,46,4.90
2016,04,25,05,47,4.90
2016,04,25,05,48,4.90
2016,04,25,05,49,4.90
2016,04,25,05,50,4.90
2016,04,25,05,51,4.80
2016,04,25,05,52,4.80
2016,04,25,05,53,4.80
2016,04,25,05,54,4.80
2016,04,25,05,55,4.80
2016,04,25,05,56,4.80
2016,04,25,05,57,4.80
2016,04,25,05,58,4.80
2016,04,25,05,59,4.80
2016,04,25,06,00,4.80
2016,04,25,06,01,4.80
2016,04,25,06,02,4.80
2016,04,25,06,03,4.80
2016,04,25,06,04,4.80
2016,04,25,06,05,4.80
2016,04,25,06,06,4.80
2016,04,25,06,07,4.70
2016,04,25,06,08,4.70
2016,04,25,06,09,4.70
2016,04,25,06,10,4.70
2016,04,25,06,11,4.70
2016,04,25,06,12,4.70
2016,04,25,06,13,4.70
2016,04,25,06,14,4.70
2016,04,25,06,15,4.70
2016,04,25,06,16,4.60
2016,04,25,06,17,4.60
2016,04,25,06,18,4.60
2016,04,25,06,19,4.60
2016,04,25,06,20,4.60
2016,04,25,06,21,4.60
2016,04,25,06,22,4.60
2016,04,25,06,23,4.60
2016,04,25,06,24,4.60
2016,04,25,06,25,4.60
2016,04,25,06,26,4.50
2016,04,25,06,27,4.50
2016,04,25,06,28,4.50
2016,04,25,06,29,4.50
2016,04,25,06,30,4.50
2016,04,25,06,31,4.50
2016,04,25,06,32,4.50
2016,04,25,06,33,4.50
2016,04,25,06,34,4.50
2016,04,25,06,35,4.50
2016,04,25,06,36,4.50
2016,04,25,06,37,4.50
2016,04,25,06,38,4.50
2016,04,25,06,39,4.50
2016,04,25,06,40,4.50
2016,04,25,06,41,4.50
2016,04,25,06,42,4.50
2016,04,25,06,43,4.50
2016,04,25,06,44,4.50
2016,04,25,06,45,4.50
2016,04,25,06,46,4.50
2016,04,25,06,47,4.50
2016,04,25,06,48,4.50
2016,04,25,06,49,4.50
2016,04,25,06,50,4.40
2016,04,25,06,51,4.40
2016,04,25,06,52,4.40
2016,04,25,06,53,4.40
2016,04,25,06,54,4.40
2016,04,25,06,55,4.40
2016,04,25,06,56,4.40
2016,04,25,06,57,4.40
2016,04,25,06,58,4.40
2016,04,25,06,59,4.50
2016,04,25,07,00,4.50
2016,04,25,07,01,4.50
2016,04,25,07,02,4.60
2016,04,25,07,03,4.60
2016,04,25,07,04,4.70
2016,04,25,07,05,4.70
2016,04,25,07,06,4.70
2016,04,25,07,07,4.70
2016,04,25,07,08,4.70
2016,04,25,07,09,4.80
2016,04,25,07,10,4.80
2016,04,25,07,11,4.80
2016,04,25,07,12,4.90
2016,04,25,07,13,4.90
2016,04,25,07,14,4.90
2016,04,25,07,15,5.00
2016,04,25,07,16,5.10
2016,04,25,07,17,5.10
2016,04,25,07,18,5.10
2016,04,25,07,19,5.20
2016,04,25,07,20,5.20
2016,04,25,07,21,5.20
2016,04,25,07,22,5.30
2016,04,25,07,23,5.30
2016,04,25,07,24,5.40
2016,04,25,07,25,5.40
2016,04,25,07,26,5.40
2016,04,25,07,27,5.50
2016,04,25,07,28,5.50
2016,04,25,07,29,5.60
2016,04,25,07,30,5.60
2016,04,25,07,31,5.70
2016,04,25,07,32,5.70
2016,04,25,07,33,5.80
2016,04,25,07,34,5.80
2016,04,25,07,35,5.80
2016,04,25,07,36,5.90
2016,04,25,07,37,5.90
2016,04,25,07,38,6.00
2016,04,25,07,39,6.10
2016,04,25,07,40,6.20
2016,04,25,07,41,6.20
2016,04,25,07,42,6.30
2016,04,25,07,43,6.50
2016,04,25,07,44,6.60
2016,04,25,07,45,6.60
2016,04,25,07,46,6.70
2016,04,25,07,47,6.80
2016,04,25,07,48,6.80
2016,04,25,07,49,6.90
2016,04,25,07,50,6.90
2016,04,25,07,51,7.00
2016,04,25,07,52,7.10
2016,04,25,07,53,7.20
2016,04,25,07,54,7.20
2016,04,25,07,55,7.30
2016,04,25,07,56,7.40
2016,04,25,07,57,7.50
2016,04,25,07,58,7.50
2016,04,25,07,59,7.60
2016,04,25,08,00,7.70
2016,04,25,08,01,7.80
2016,04,25,08,02,7.80
2016,04,25,08,03,7.90
2016,04,25,08,04,8.00
2016,04,25,08,05,8.20
2016,04,25,08,06,8.30
2016,04,25,08,07,8.40
2016,04,25,08,08,8.60
2016,04,25,08,09,8.70
2016,04,25,08,10,8.80
2016,04,25,08,11,8.80
2016,04,25,08,12,8.90
2016,04,25,08,13,9.00
2016,04,25,08,14,9.10
2016,04,25,08,15,9.10
2016,04,25,08,16,9.20
2016,04,25,08,17,9.20
2016,04,25,08,18,9.30
2016,04,25,08,19,9.30
2016,04,25,08,20,9.40
2016,04,25,08,21,9.40
2016,04,25,08,22,9.40
2016,04,25,08,23,9.30
2016,04,25,08,24,9.30
2016,04,25,08,25,9.30
2016,04,25,08,26,9.30
2016,04,25,08,27,9.20
2016,04,25,08,28,9.20
2016,04,25,08,29,9.20
2016,04,25,08,30,9.20
2016,04,25,08,31,9.30
2016,04,25,08,32,9.40
2016,04,25,08,33,9.50
2016,04,25,08,34,9.50
2016,04,25,08,35,9.60
2016,04,25,08,36,9.60
2016,04,25,08,37,9.60
2016,04,25,08,38,9.60
2016,04,25,08,39,9.60
2016,04,25,08,40,9.60
2016,04,25,08,41,9.60
2016,04,25,08,42,9.60
2016,04,25,08,43,9.60
2016,04,25,08,44,9.60
2016,04,25,08,45,9.50
2016,04,25,08,46,9.50
2016,04,25,08,47,9.50
2016,04,25,08,48,9.50
2016,04,25,08,49,9.40
2016,04,25,08,50,9.40
2016,04,25,08,51,9.40
2016,04,25,08,52,9.40
2016,04,25,08,53,9.40
2016,04,25,08,54,9.40
2016,04,25,08,55,9.40
2016,04,25,08,56,9.40
2016,04,25,08,57,9.40
2016,04,25,08,58,9.40
2016,04,25,08,59,9.50
2016,04,25,09,00,9.50
2016,04,25,09,01,9.60
2016,04,25,09,02,9.60
2016,04,25,09,03,9.70
2016,04,25,09,04,9.80
2016,04,25,09,05,9.90
2016,04,25,09,06,9.90
2016,04,25,09,07,10.00
2016,04,25,09,08,10.00
2016,04,25,09,09,10.00
2016,04,25,09,10,10.00
2016,04,25,09,11,10.00
2016,04,25,09,12,10.00
2016,04,25,09,13,10.00
2016,04,25,09,14,9.90
2016,04,25,09,15,9.90
2016,04,25,09,16,9.90
2016,04,25,09,17,10.00
2016,04,25,09,18,10.10
2016,04,25,09,19,10.20
2016,04,25,09,20,10.20
2016,04,25,09,21,10.30
2016,04,25,09,22,10.40
2016,04,25,09,23,10.40
2016,04,25,09,24,10.50
2016,04,25,09,25,10.60
2016,04,25,09,26,10.60
2016,04,25,09,27,10.60
2016,04,25,09,28,10.60
2016,04,25,09,29,10.60
2016,04,25,09,30,10.60
2016,04,25,09,31,10.60
2016,04,25,09,32,10.60
2016,04,25,09,33,10.60
2016,04,25,09,34,10.70
2016,04,25,09,35,10.70
2016,04,25,09,36,10.80
2016,04,25,09,37,10.90
2016,04,25,09,38,11.00
2016,04,25,09,39,11.10
2016,04,25,09,40,11.20
2016,04,25,09,41,11.40
2016,04,25,09,42,11.40
2016,04,25,09,43,11.50
2016,04,25,09,44,11.60
2016,04,25,09,45,11.60
2016,04,25,09,46,11.70
2016,04,25,09,47,11.70
2016,04,25,09,48,11.70
2016,04,25,09,49,11.70
2016,04,25,09,50,11.70
2016,04,25,09,51,11.70
2016,04,25,09,52,11.70
2016,04,25,09,53,11.60
2016,04,25,09,54,11.70
2016,04,25,09,55,11.70
2016,04,25,09,56,11.80
2016,04,25,09,57,11.80
2016,04,25,09,58,11.70
2016,04,25,09,59,11.70
2016,04,25,10,00,11.70
2016,04,25,10,01,11.70
2016,04,25,10,02,11.80
2016,04,25,10,03,11.80
2016,04,25,10,04,11.80
2016,04,25,10,05,11.80
2016,04,25,10,06,11.90
2016,04,25,10,07,11.90
2016,04,25,10,08,11.90
2016,04,25,10,09,11.90
2016,04,25,10,10,11.90
2016,04,25,10,11,11.90
2016,04,25,10,12,11.90
2016,04,25,10,13,12.00
2016,04,25,10,14,12.00
2016,04,25,10,15,11.90
2016,04,25,10,16,11.80
2016,04,25,10,17,11.80
2016,04,25,10,18,11.80
2016,04,25,10,19,11.80
2016,04,25,10,20,11.90
2016,04,25,10,21,11.90
2016,04,25,10,22,11.80
2016,04,25,10,23,11.80
2016,04,25,10,24,11.80
2016,04,25,10,25,11.80
2016,04,25,10,26,11.80
2016,04,25,10,27,11.90
2016,04,25,10,28,12.00
2016,04,25,10,29,12.10
2016,04,25,10,30,12.10
2016,04,25,10,31,12.20
2016,04,25,10,32,12.20
2016,04,25,10,33,12.30
2016,04,25,10,34,12.30
2016,04,25,10,35,12.20
2016,04,25,10,36,12.20
2016,04,25,10,37,12.20
2016,04,25,10,38,12.30
2016,04,25,10,39,12.30
2016,04,25,10,40,12.30
2016,04,25,10,41,12.20
2016,04,25,10,42,12.10
2016,04,25,10,43,12.00
2016,04,25,10,44,11.90
2016,04,25,10,45,11.90
2016,04,25,10,46,11.70
2016,04,25,10,47,11.70
2016,04,25,10,48,11.60
2016,04,25,10,49,11.50
2016,04,25,10,50,11.40
2016,04,25,10,51,11.40
2016,04,25,10,52,11.50
2016,04,25,10,53,11.50
2016,04,25,10,54,11.60
2016,04,25,10,55,11.60
2016,04,25,10,56,11.70
2016,04,25,10,57,11.80
2016,04,25,10,58,11.80
2016,04,25,10,59,11.90
2016,04,25,11,00,11.90
2016,04,25,11,01,11.90
2016,04,25,11,02,11.90
2016,04,25,11,03,11.80
2016,04,25,11,04,11.80
2016,04,25,11,05,11.80
2016,04,25,11,06,11.70
2016,04,25,11,07,11.70
2016,04,25,11,08,11.80
2016,04,25,11,09,11.90
2016,04,25,11,10,12.00
2016,04,25,11,11,12.10
2016,04,25,11,12,12.10
2016,04,25,11,13,12.10
2016,04,25,11,14,12.10
2016,04,25,11,15,12.20
2016,04,25,11,16,12.20
2016,04,25,11,17,12.20
2016,04,25,11,18,12.30
2016,04,25,11,19,12.20
2016,04,25,11,20,12.20
2016,04,25,11,21,12.30
2016,04,25,11,22,12.30
2016,04,25,11,23,12.30
2016,04,25,11,24,12.20
2016,04,25,11,25,12.20
2016,04,25,11,26,12.30
2016,04,25,11,27,12.40
2016,04,25,11,28,12.50
2016,04,25,11,29,12.60
2016,04,25,11,30,12.70
2016,04,25,11,31,12.80
2016,04,25,11,32,12.80
2016,04,25,11,33,12.80
2016,04,25,11,34,12.80
2016,04,25,11,35,12.80
2016,04,25,11,36,12.80
2016,04,25,11,37,12.70
2016,04,25,11,38,12.70
2016,04,25,11,39,12.70
2016,04,25,11,40,12.80
2016,04,25,11,41,13.00
2016,04,25,11,42,13.10
2016,04,25,11,43,13.00
2016,04,25,11,44,12.90
2016,04,25,11,45,12.90
2016,04,25,11,46,12.90
2016,04,25,11,47,12.80
2016,04,25,11,48,12.80
2016,04,25,11,49,12.80
2016,04,25,11,50,12.80
2016,04,25,11,51,12.80
2016,04,25,11,52,12.90
2016,04,25,11,53,12.90
2016,04,25,11,54,12.80
2016,04,25,11,55,12.80
2016,04,25,11,56,12.70
2016,04,25,11,57,12.70
2016,04,25,11,58,12.70
2016,04,25,11,59,12.70
2016,04,25,12,00,12.70
2016,04,25,12,01,12.70
2016,04,25,12,02,12.80
2016,04,25,12,03,12.90
2016,04,25,12,04,12.90
2016,04,25,12,05,12.90
2016,04,25,12,06,13.00
2016,04,25,12,07,12.90
2016,04,25,12,08,12.90
2016,04,25,12,09,12.90
2016,04,25,12,10,13.00
2016,04,25,12,11,13.00
2016,04,25,12,12,13.10
2016,04,25,12,13,13.10
2016,04,25,12,14,13.10
2016,04,25,12,15,13.00
2016,04,25,12,16,13.00
2016,04,25,12,17,12.90
2016,04,25,12,18,12.90
2016,04,25,12,19,12.90
2016,04,25,12,20,12.80
2016,04,25,12,21,12.70
2016,04,25,12,22,12.60
2016,04,25,12,23,12.60
2016,04,25,12,24,12.50
2016,04,25,12,25,12.50
2016,04,25,12,26,12.60
2016,04,25,12,27,12.70
2016,04,25,12,28,12.80
2016,04,25,12,29,12.90
2016,04,25,12,30,12.90
2016,04,25,12,31,13.00
2016,04,25,12,32,13.10
2016,04,25,12,33,13.10
2016,04,25,12,34,13.30
2016,04,25,12,35,13.30
2016,04,25,12,36,13.30
2016,04,25,12,37,13.10
2016,04,25,12,38,13.00
2016,04,25,12,39,12.90
2016,04,25,12,40,12.90
2016,04,25,12,41,12.90
2016,04,25,12,42,13.00
2016,04,25,12,43,13.00
2016,04,25,12,44,13.00
2016,04,25,12,45,13.00
2016,04,25,12,46,13.10
2016,04,25,12,47,13.10
2016,04,25,12,48,13.20
2016,04,25,12,49,13.30
2016,04,25,12,50,13.30
2016,04,25,12,51,13.30
2016,04,25,12,52,13.30
2016,04,25,12,53,13.40
2016,04,25,12,54,13.50
2016,04,25,12,55,13.50
2016,04,25,12,56,13.50
2016,04,25,12,57,13.50
2016,04,25,12,58,13.40
2016,04,25,12,59,13.40
2016,04,25,13,00,13.50
2016,04,25,13,01,13.60
2016,04,25,13,02,13.60
2016,04,25,13,03,13.50
2016,04,25,13,04,13.60
2016,04,25,13,05,13.50
2016,04,25,13,06,13.50
2016,04,25,13,07,13.60
2016,04,25,13,08,13.60
2016,04,25,13,09,13.60
2016,04,25,13,10,13.60
2016,04,25,13,11,13.50
2016,04,25,13,12,13.50
2016,04,25,13,13,13.50
2016,04,25,13,14,13.50
2016,04,25,13,15,13.50
2016,04,25,13,16,13.60
2016,04,25,13,17,13.70
2016,04,25,13,18,13.80
2016,04,25,13,19,13.90
2016,04,25,13,20,13.90
2016,04,25,13,21,13.90
2016,04,25,13,22,14.00
2016,04,25,13,23,14.10
2016,04,25,13,24,14.10
2016,04,25,13,25,14.10
2016,04,25,13,26,14.10
2016,04,25,13,27,14.00
2016,04,25,13,28,14.00
2016,04,25,13,29,14.00
2016,04,25,13,30,13.80
2016,04,25,13,31,13.70
2016,04,25,13,32,13.60
2016,04,25,13,33,13.60
2016,04,25,13,34,13.60
2016,04,25,13,35,13.70
2016,04,25,13,36,13.70
2016,04,25,13,37,13.70
2016,04,25,13,38,13.50
2016,04,25,13,39,13.40
2016,04,25,13,40,13.40
2016,04,25,13,41,13.40
2016,04,25,13,42,13.40
2016,04,25,13,43,13.30
2016,04,25,13,44,13.30
2016,04,25,13,45,13.20
2016,04,25,13,46,13.30
2016,04,25,13,47,13.30
2016,04,25,13,48,13.40
2016,04,25,13,49,13.40
2016,04,25,13,50,13.40
2016,04,25,13,51,13.50
2016,04,25,13,52,13.50
2016,04,25,13,53,13.50
2016,04,25,13,54,13.40
2016,04,25,13,55,13.40
2016,04,25,13,56,13.50
2016,04,25,13,57,13.60
2016,04,25,13,58,13.70
2016,04,25,13,59,13.70
2016,04,25,14,00,13.60
2016,04,25,14,01,13.60
2016,04,25,14,02,13.50
2016,04,25,14,03,13.40
2016,04,25,14,04,13.40
2016,04,25,14,05,13.30
2016,04,25,14,06,13.30
2016,04,25,14,07,13.30
2016,04,25,14,08,13.30
2016,04,25,14,09,13.40
2016,04,25,14,10,13.50
2016,04,25,14,11,13.50
2016,04,25,14,12,13.50
2016,04,25,14,13,13.50
2016,04,25,14,14,13.40
2016,04,25,14,15,13.40
2016,04,25,14,16,13.30
2016,04,25,14,17,13.30
2016,04,25,14,18,13.30
2016,04,25,14,19,13.20
2016,04,25,14,20,13.20
2016,04,25,14,21,13.20
2016,04,25,14,22,13.10
2016,04,25,14,23,13.10
2016,04,25,14,24,13.00
2016,04,25,14,25,13.00
2016,04,25,14,26,12.90
2016,04,25,14,27,12.90
2016,04,25,14,28,12.90
2016,04,25,14,29,12.90
2016,04,25,14,30,12.90
2016,04,25,14,31,13.00
2016,04,25,14,32,13.10
2016,04,25,14,33,13.20
2016,04,25,14,34,13.30
2016,04,25,14,35,13.30
2016,04,25,14,36,13.30
2016,04,25,14,37,13.20
2016,04,25,14,38,13.20
2016,04,25,14,39,13.20
2016,04,25,14,40,13.20
2016,04,25,14,41,13.20
2016,04,25,14,42,13.20
2016,04,25,14,43,13.20
2016,04,25,14,44,13.30
2016,04,25,14,45,13.30
2016,04,25,14,46,13.30
2016,04,25,14,47,13.30
2016,04,25,14,48,13.30
2016,04,25,14,49,13.30
2016,04,25,14,50,13.30
2016,04,25,14,51,13.30
2016,04,25,14,52,13.30
2016,04,25,14,53,13.30
2016,04,25,14,54,13.40
2016,04,25,14,55,13.50
2016,04,25,14,56,13.50
2016,04,25,14,57,13.60
2016,04,25,14,58,13.70
2016,04,25,14,59,13.70
2016,04,25,15,00,13.70
2016,04,25,15,01,13.70
2016,04,25,15,02,13.70
2016,04,25,15,03,13.70
2016,04,25,15,04,13.70
2016,04,25,15,05,13.70
2016,04,25,15,06,13.70
2016,04,25,15,07,13.80
2016,04,25,15,08,13.90
2016,04,25,15,09,14.00
2016,04,25,15,10,14.00
2016,04,25,15,11,14.00
2016,04,25,15,12,14.10
2016,04,25,15,13,14.20
2016,04,25,15,14,14.20
2016,04,25,15,15,14.20
2016,04,25,15,16,14.10
2016,04,25,15,17,14.10
2016,04,25,15,18,14.00
2016,04,25,15,19,14.10
2016,04,25,15,20,14.10
2016,04,25,15,21,14.20
2016,04,25,15,22,14.20
2016,04,25,15,23,14.30
2016,04,25,15,24,14.30
2016,04,25,15,25,14.30
2016,04,25,15,26,14.30
2016,04,25,15,27,14.30
2016,04,25,15,28,14.30
2016,04,25,15,29,14.30
2016,04,25,15,30,14.30
2016,04,25,15,31,14.40
2016,04,25,15,32,14.40
2016,04,25,15,33,14.50
2016,04,25,15,34,14.60
2016,04,25,15,35,14.60
2016,04,25,15,36,14.60
2016,04,25,15,37,14.70
2016,04,25,15,38,14.80
2016,04,25,15,39,14.80
2016,04,25,15,40,14.70
2016,04,25,15,41,14.70
2016,04,25,15,42,14.60
2016,04,25,15,43,14.50
2016,04,25,15,44,14.50
2016,04,25,15,45,14.50
2016,04,25,15,46,14.40
2016,04,25,15,47,14.40
2016,04,25,15,48,14.40
2016,04,25,15,49,14.40
2016,04,25,15,50,14.40
2016,04,25,15,51,14.30
2016,04,25,15,52,14.30
2016,04,25,15,53,14.30
2016,04,25,15,54,14.30
2016,04,25,15,55,14.30
2016,04,25,15,56,14.40
2016,04,25,15,57,14.40
2016,04,25,15,58,14.40
2016,04,25,15,59,14.40
2016,04,25,16,00,14.40
2016,04,25,16,01,14.40
2016,04,25,16,02,14.40
2016,04,25,16,03,14.30
2016,04,25,16,04,14.30
2016,04,25,16,05,14.40
2016,04,25,16,06,14.40
2016,04,25,16,07,14.40
2016,04,25,16,08,14.40
2016,04,25,16,09,14.40
2016,04,25,16,10,14.40
2016,04,25,16,11,14.40
2016,04,25,16,12,14.50
2016,04,25,16,13,14.50
2016,04,25,16,14,14.40
2016,04,25,16,15,14.40
2016,04,25,16,16,14.40
2016,04,25,16,17,14.40
2016,04,25,16,18,14.40
2016,04,25,16,19,14.40
2016,04,25,16,20,14.40
2016,04,25,16,21,14.40
2016,04,25,16,22,14.40
2016,04,25,16,23,14.40
2016,04,25,16,24,14.30
2016,04,25,16,25,14.30
2016,04,25,16,26,14.40
2016,04,25,16,27,14.40
2016,04,25,16,28,14.40
2016,04,25,16,29,14.40
2016,04,25,16,30,14.50
2016,04,25,16,31,14.60
2016,04,25,16,32,14.60
2016,04,25,16,33,14.70
2016,04,25,16,34,14.70
2016,04,25,16,35,14.60
2016,04,25,16,36,14.60
2016,04,25,16,37,14.60
2016,04,25,16,38,14.60
2016,04,25,16,39,14.60
2016,04,25,16,40,14.60
2016,04,25,16,41,14.70
2016,04,25,16,42,14.70
2016,04,25,16,43,14.60
2016,04,25,16,44,14.60
2016,04,25,16,45,14.50
2016,04,25,16,46,14.40
2016,04,25,16,47,14.40
2016,04,25,16,48,14.40
2016,04,25,16,49,14.40
2016,04,25,16,50,14.40
2016,04,25,16,51,14.40
2016,04,25,16,52,14.40
2016,04,25,16,53,14.50
2016,04,25,16,54,14.60
2016,04,25,16,55,14.50
2016,04,25,16,56,14.50
2016,04,25,16,57,14.40
2016,04,25,16,58,14.30
2016,04,25,16,59,14.30
2016,04,25,17,00,14.30
2016,04,25,17,01,14.30
2016,04,25,17,02,14.30
2016,04,25,17,03,14.30
2016,04,25,17,04,14.30
2016,04,25,17,05,14.30
2016,04,25,17,06,14.30
2016,04,25,17,07,14.30
2016,04,25,17,08,14.30
2016,04,25,17,09,14.30
2016,04,25,17,10,14.40
2016,04,25,17,11,14.40
2016,04,25,17,12,14.30
2016,04,25,17,13,14.30
2016,04,25,17,14,14.40
2016,04,25,17,15,14.40
2016,04,25,17,16,14.40
2016,04,25,17,17,14.40
2016,04,25,17,18,14.40
2016,04,25,17,19,14.40
2016,04,25,17,20,14.40
2016,04,25,17,21,14.40
2016,04,25,17,22,14.40
2016,04,25,17,23,14.30
2016,04,25,17,24,14.30
2016,04,25,17,25,14.30
2016,04,25,17,26,14.30
2016,04,25,17,27,14.30
2016,04,25,17,28,14.30
2016,04,25,17,29,14.20
2016,04,25,17,30,14.10
2016,04,25,17,31,14.10
2016,04,25,17,32,14.10
2016,04,25,17,33,14.10
2016,04,25,17,34,14.10
2016,04,25,17,35,14.10
2016,04,25,17,36,14.10
2016,04,25,17,37,14.10
2016,04,25,17,38,14.10
2016,04,25,17,39,14.10
2016,04,25,17,40,14.10
2016,04,25,17,41,14.10
2016,04,25,17,42,14.10
2016,04,25,17,43,14.10
2016,04,25,17,44,14.10
2016,04,25,17,45,14.20
2016,04,25,17,46,14.20
2016,04,25,17,47,14.20